CW5244 Weather Reports


Display with metric or nautical units.
time (UTC)temp
F
wind
direction
speed
MPH
gust
MPH
rain 1hr
in
rain 24hr
in
rain mn
in
humidity
%
barometer
mb
20260505102027 64 115 0.0 4.0 0.00 0.01 0.00 72 1009.0
20260505101539 64 91 0.0 4.0 0.00 0.01 0.00 72 1009.0
20260505101044 63 128 0.0 4.0 0.00 0.01 0.00 72 1009.0
20260505100548 64 148 0.0 2.0 0.00 0.01 0.00 72 1009.0
20260505100100 64 142 0.0 5.0 0.00 0.01 0.00 72 1009.0
20260505095545 64 180 1.0 5.0 0.00 0.01 0.00 72 1008.8
20260505095054 64 149 1.0 5.0 0.00 0.01 0.00 72 1008.8
20260505094607 64 160 1.0 6.0 0.00 0.01 0.00 71 1008.8
20260505094001 64 163 1.0 6.0 0.00 0.01 0.00 71 1008.7
20260505093511 64 167 1.0 6.0 0.00 0.01 0.00 71 1008.7
20260505093100 64 229 2.0 9.0 0.00 0.01 0.00 71 1008.7
20260505092557 64 176 3.0 9.0 0.00 0.01 0.00 70 1008.8
20260505092038 64 141 1.0 8.0 0.00 0.01 0.00 70 1008.6
20260505091548 64 202 2.0 9.0 0.00 0.01 0.00 70 1008.5
20260505091051 64 219 2.0 9.0 0.00 0.01 0.00 70 1008.4
20260505090558 64 89 2.0 10.0 0.00 0.01 0.00 69 1008.4
20260505090111 64 264 2.0 10.0 0.00 0.01 0.00 69 1008.5
20260505085556 65 207 4.0 12.0 0.00 0.01 0.00 69 1008.6
20260505085047 64 181 2.0 8.0 0.00 0.01 0.00 69 1008.7
20260505084552 64 153 1.0 10.0 0.00 0.01 0.00 69 1008.6
20260505084057 64 127 3.0 10.0 0.00 0.01 0.00 69 1008.8
20260505083604 64 157 2.0 10.0 0.00 0.01 0.00 68 1008.8
20260505083010 64 149 1.0 10.0 0.00 0.01 0.00 68 1008.8
20260505082600 64 141 2.0 9.0 0.00 0.01 0.00 68 1008.8
20260505082049 64 237 2.0 8.0 0.00 0.01 0.00 68 1008.9
20260505081553 64 157 3.0 8.0 0.00 0.01 0.00 68 1009.0
20260505081059 64 156 2.0 7.0 0.00 0.01 0.00 68 1009.1
20260505080550 64 124 2.0 7.0 0.00 0.01 0.00 68 1009.1
20260505080059 64 204 2.0 7.0 0.00 0.01 0.00 68 1009.1
20260505075604 65 86 1.0 7.0 0.00 0.01 0.00 67 1009.1
20260505075007 65 103 1.0 6.0 0.00 0.01 0.00 67 1009.2
20260505074006 65 129 0.0 7.0 0.00 0.01 0.00 67 1009.1
20260505073601 65 112 2.0 6.0 0.00 0.01 0.00 66 1009.2
20260505073008 65 179 0.0 7.0 0.00 0.01 0.00 66 1009.2
20260505072512 65 347 1.0 8.0 0.00 0.01 0.00 66 1009.4
20260505072001 65 84 1.0 8.0 0.00 0.01 0.00 66 1009.5
20260505071508 65 178 1.0 5.0 0.00 0.01 0.00 65 1009.6
20260505071013 66 245 0.0 5.0 0.00 0.01 0.00 65 1009.7
20260505070511 66 81 1.0 5.0 0.00 0.01 0.00 65 1009.9
20260505070021 66 128 1.0 5.0 0.00 0.01 0.00 64 1010.0
20260505065521 66 120 0.0 8.0 0.00 0.01 0.00 64 1010.1
20260505065024 66 143 2.0 8.0 0.00 0.01 0.00 63 1010.2
20260505064531 66 129 0.0 4.0 0.00 0.01 0.00 63 1010.3
20260505064036 67 142 0.0 5.0 0.00 0.01 0.00 63 1010.3
20260505063544 67 161 1.0 5.0 0.00 0.01 0.00 63 1010.4
20260505063051 67 124 0.0 6.0 0.00 0.01 0.00 62 1010.3
20260505062557 67 153 1.0 6.0 0.00 0.01 0.00 62 1010.4
20260505062103 67 262 0.0 6.0 0.00 0.01 0.00 62 1010.5
20260505061510 67 190 0.0 6.0 0.00 0.01 0.00 62 1010.3
20260505061014 67 168 0.0 4.0 0.00 0.01 0.00 62 1010.5
20260505060517 67 207 0.0 6.0 0.00 0.01 0.00 61 1010.6
20260505060104 67 88 1.0 6.0 0.00 0.01 0.00 61 1010.6
20260505055507 67 187 0.0 5.0 0.00 0.01 0.00 61 1010.5
20260505055011 67 141 0.0 4.0 0.00 0.01 0.00 61 1010.6
20260505054605 68 160 0.0 5.0 0.00 0.01 0.00 61 1010.5
20260505054006 68 174 1.0 5.0 0.00 0.01 0.00 60 1010.5
20260505053511 68 128 0.0 6.0 0.00 0.01 0.00 60 1010.6
20260505053107 68 70 2.0 6.0 0.00 0.01 0.00 60 1010.5
20260505052510 68 113 1.0 7.0 0.00 0.01 0.00 60 1010.6
20260505052010 68 215 1.0 7.0 0.00 0.01 0.00 60 1010.6
20260505051523 68 115 1.0 7.0 0.00 0.01 0.00 60 1010.7
20260505051022 68 206 3.0 7.0 0.00 0.01 0.00 60 1010.6
20260505050531 68 162 0.0 7.0 0.00 0.01 0.00 60 1010.7
20260505041603 69 153 2.0 8.0 0.00 0.01 0.01 59 1010.8
20260505041056 69 200 1.0 8.0 0.00 0.01 0.01 59 1010.8
20260505040604 69 186 1.0 6.0 0.00 0.01 0.01 59 1010.8
20260505040059 69 170 2.0 7.0 0.00 0.01 0.01 58 1010.8
20260505035606 69 106 2.0 7.0 0.00 0.01 0.01 58 1010.8
20260505035002 69 142 1.0 6.0 0.00 0.01 0.01 58 1010.6
20260505034510 69 143 2.0 6.0 0.00 0.01 0.01 58 1010.7
20260505034016 70 159 1.0 9.0 0.00 0.01 0.01 57 1010.8
20260505033522 70 106 3.0 9.0 0.00 0.01 0.01 57 1010.7
20260505033027 70 98 1.0 6.0 0.00 0.01 0.01 57 1010.7
20260505032535 70 87 1.0 7.0 0.00 0.01 0.01 56 1010.7
20260505032040 70 199 1.0 10.0 0.00 0.01 0.01 56 1010.8
20260505031549 70 134 2.0 10.0 0.00 0.01 0.01 56 1010.7
20260505031054 70 176 2.0 9.0 0.00 0.01 0.01 56 1010.5
20260505030603 70 147 3.0 6.0 0.00 0.01 0.01 56 1010.6
20260505030002 70 160 1.0 7.0 0.00 0.01 0.01 56 1010.5
20260505025558 70 182 1.0 7.0 0.00 0.01 0.01 56 1010.6
20260505025104 70 126 2.0 6.0 0.00 0.01 0.01 56 1010.5
20260505024507 71 137 2.0 7.0 0.00 0.01 0.01 55 1010.5
20260505024100 71 180 1.0 7.0 0.00 0.01 0.01 55 1010.4
20260505023503 71 49 1.0 5.0 0.00 0.01 0.01 55 1010.4
20260505023006 71 203 1.0 6.0 0.00 0.01 0.01 54 1010.4
20260505022602 71 231 2.0 6.0 0.00 0.01 0.01 54 1010.3
20260505022025 71 188 0.0 6.0 0.00 0.01 0.01 54 1010.3